Location: Bonningues
(50.7927°N, 2.0150°E)
Time: 05:08:15
(UTC+00:00)

Cosmos 1486 Rocket - Pass Details

Date: 08 August 2020
Orbit: 758 x 783 km, 74.1° (Epoch: 23 September)

Event Time Altitude Azimuth Distance (km) Brightness Sun altitude
Exits shadow 23:52:07 63° 193° (SSW) 851 3.9 -23.4°
Maximum altitude 23:53:00 85° 114° (ESE) 770 3.9 -23.4°
Drops below altitude 10° 23:58:13 10° 25° (NNE) 2,301 7.3 -23.4°
Sets 00:00:36 0° 25° (NNE) 3,230 8.3 -23.4°
